User: anonymous
Location: Oshawa
(43.9000°N, 78.8670°W)
Time: 07:32:29
(UTC-04:00)
Language:

Cosmos 1805 Rocket - Orbit

View from above orbital plane
View from above orbital plane
View from above satellite
View from above satellite

Ground track
Ground track

The orbit data is extracted from the following two-line orbital elements,

1 17192U 86097B   14244.31240728  .00000205  00000-0  22292-4 0  5301
2 17192 082.5075 133.4813 0016443 217.5951 276.6302 14.82984336497497
Epoch (UTC): 01 September 2014 07:29:51
Eccentricity: 0.0016443
inclination: 82.5075°
perigee height: 608 km
apogee height: 631 km
right ascension of ascending node: 133.4813°
argument of perigee: 217.5951°
revolutions per day: 14.82984336
mean anomaly at epoch: 276.6302°
orbit number at epoch: 49749

The dashed part of the orbit path shows where the satellite is in the earth's shadow,  

DLR